Year,Month,Day,Hour,Minute,Value (Times are PST for temperature in C)
2011,08,20,00,00,12.00
2011,08,20,00,01,12.00
2011,08,20,00,02,12.00
2011,08,20,00,03,12.00
2011,08,20,00,04,12.00
2011,08,20,00,05,12.00
2011,08,20,00,06,11.90
2011,08,20,00,07,11.90
2011,08,20,00,08,11.90
2011,08,20,00,09,11.90
2011,08,20,00,10,11.90
2011,08,20,00,11,11.90
2011,08,20,00,12,11.90
2011,08,20,00,13,11.90
2011,08,20,00,14,11.90
2011,08,20,00,15,11.90
2011,08,20,00,16,11.90
2011,08,20,00,17,11.90
2011,08,20,00,18,11.90
2011,08,20,00,19,11.90
2011,08,20,00,20,11.90
2011,08,20,00,21,11.80
2011,08,20,00,22,11.80
2011,08,20,00,23,11.80
2011,08,20,00,24,11.80
2011,08,20,00,25,11.80
2011,08,20,00,26,11.80
2011,08,20,00,27,11.80
2011,08,20,00,28,11.70
2011,08,20,00,29,11.70
2011,08,20,00,30,11.70
2011,08,20,00,31,11.70
2011,08,20,00,32,11.60
2011,08,20,00,33,11.60
2011,08,20,00,34,11.60
2011,08,20,00,35,11.60
2011,08,20,00,36,11.60
2011,08,20,00,37,11.60
2011,08,20,00,38,11.60
2011,08,20,00,39,11.60
2011,08,20,00,40,11.60
2011,08,20,00,41,11.60
2011,08,20,00,42,11.60
2011,08,20,00,43,11.60
2011,08,20,00,44,11.60
2011,08,20,00,45,11.50
2011,08,20,00,46,11.50
2011,08,20,00,47,11.50
2011,08,20,00,48,11.50
2011,08,20,00,49,11.50
2011,08,20,00,50,11.50
2011,08,20,00,51,11.50
2011,08,20,00,52,11.40
2011,08,20,00,53,11.40
2011,08,20,00,54,11.40
2011,08,20,00,55,11.40
2011,08,20,00,56,11.40
2011,08,20,00,57,11.30
2011,08,20,00,58,11.30
2011,08,20,00,59,11.30
2011,08,20,01,00,11.30
2011,08,20,01,01,11.30
2011,08,20,01,02,11.40
2011,08,20,01,03,11.40
2011,08,20,01,04,11.40
2011,08,20,01,05,11.30
2011,08,20,01,06,11.30
2011,08,20,01,07,11.30
2011,08,20,01,08,11.30
2011,08,20,01,09,11.30
2011,08,20,01,10,11.30
2011,08,20,01,11,11.40
2011,08,20,01,12,11.40
2011,08,20,01,13,11.30
2011,08,20,01,14,11.40
2011,08,20,01,15,11.40
2011,08,20,01,16,11.40
2011,08,20,01,17,11.40
2011,08,20,01,18,11.40
2011,08,20,01,19,11.40
2011,08,20,01,20,11.40
2011,08,20,01,21,11.40
2011,08,20,01,22,11.40
2011,08,20,01,23,11.40
2011,08,20,01,24,11.40
2011,08,20,01,25,11.30
2011,08,20,01,26,11.30
2011,08,20,01,27,11.30
2011,08,20,01,28,11.30
2011,08,20,01,29,11.30
2011,08,20,01,30,11.30
2011,08,20,01,31,11.20
2011,08,20,01,32,11.20
2011,08,20,01,33,11.20
2011,08,20,01,34,11.20
2011,08,20,01,35,11.20
2011,08,20,01,36,11.20
2011,08,20,01,37,11.20
2011,08,20,01,38,11.10
2011,08,20,01,39,11.10
2011,08,20,01,40,11.10
2011,08,20,01,41,11.10
2011,08,20,01,42,11.10
2011,08,20,01,43,11.10
2011,08,20,01,44,11.10
2011,08,20,01,45,11.10
2011,08,20,01,46,11.10
2011,08,20,01,47,11.10
2011,08,20,01,48,11.10
2011,08,20,01,49,11.10
2011,08,20,01,50,11.10
2011,08,20,01,51,11.10
2011,08,20,01,52,11.10
2011,08,20,01,53,11.00
2011,08,20,01,54,11.00
2011,08,20,01,55,11.00
2011,08,20,01,56,11.00
2011,08,20,01,57,10.90
2011,08,20,01,58,10.90
2011,08,20,01,59,10.90
2011,08,20,02,00,10.90
2011,08,20,02,01,10.90
2011,08,20,02,02,10.90
2011,08,20,02,03,10.90
2011,08,20,02,04,10.90
2011,08,20,02,05,11.00
2011,08,20,02,06,11.00
2011,08,20,02,07,11.00
2011,08,20,02,08,11.00
2011,08,20,02,09,10.90
2011,08,20,02,10,10.90
2011,08,20,02,11,11.00
2011,08,20,02,12,10.90
2011,08,20,02,13,10.90
2011,08,20,02,14,10.90
2011,08,20,02,15,10.90
2011,08,20,02,16,10.90
2011,08,20,02,17,10.90
2011,08,20,02,18,10.90
2011,08,20,02,19,10.90
2011,08,20,02,20,10.90
2011,08,20,02,21,10.90
2011,08,20,02,22,10.90
2011,08,20,02,23,10.90
2011,08,20,02,24,10.90
2011,08,20,02,25,10.90
2011,08,20,02,26,10.90
2011,08,20,02,27,10.90
2011,08,20,02,28,10.90
2011,08,20,02,29,10.90
2011,08,20,02,30,10.90
2011,08,20,02,31,10.90
2011,08,20,02,32,10.80
2011,08,20,02,33,10.80
2011,08,20,02,34,10.80
2011,08,20,02,35,10.80
2011,08,20,02,36,10.80
2011,08,20,02,37,10.80
2011,08,20,02,38,10.80
2011,08,20,02,39,10.80
2011,08,20,02,40,10.80
2011,08,20,02,41,10.80
2011,08,20,02,42,10.80
2011,08,20,02,43,10.80
2011,08,20,02,44,10.90
2011,08,20,02,45,10.90
2011,08,20,02,46,10.90
2011,08,20,02,47,10.90
2011,08,20,02,48,10.90
2011,08,20,02,49,10.90
2011,08,20,02,50,10.90
2011,08,20,02,51,10.90
2011,08,20,02,52,10.90
2011,08,20,02,53,10.90
2011,08,20,02,54,10.90
2011,08,20,02,55,10.90
2011,08,20,02,56,10.90
2011,08,20,02,57,10.90
2011,08,20,02,58,10.90
2011,08,20,02,59,10.90
2011,08,20,03,00,10.90
2011,08,20,03,01,10.90
2011,08,20,03,02,10.90
2011,08,20,03,03,10.90
2011,08,20,03,04,10.80
2011,08,20,03,05,10.80
2011,08,20,03,06,10.80
2011,08,20,03,07,10.80
2011,08,20,03,08,10.80
2011,08,20,03,09,10.80
2011,08,20,03,10,10.80
2011,08,20,03,11,10.80
2011,08,20,03,12,10.80
2011,08,20,03,13,10.80
2011,08,20,03,14,10.80
2011,08,20,03,15,10.80
2011,08,20,03,16,10.70
2011,08,20,03,17,10.70
2011,08,20,03,18,10.70
2011,08,20,03,19,10.70
2011,08,20,03,20,10.70
2011,08,20,03,21,10.70
2011,08,20,03,22,10.70
2011,08,20,03,23,10.70
2011,08,20,03,24,10.70
2011,08,20,03,25,10.70
2011,08,20,03,26,10.70
2011,08,20,03,27,10.70
2011,08,20,03,28,10.70
2011,08,20,03,29,10.70
2011,08,20,03,30,10.70
2011,08,20,03,31,10.70
2011,08,20,03,32,10.60
2011,08,20,03,33,10.60
2011,08,20,03,34,10.60
2011,08,20,03,35,10.60
2011,08,20,03,36,10.60
2011,08,20,03,37,10.60
2011,08,20,03,38,10.60
2011,08,20,03,39,10.60
2011,08,20,03,40,10.50
2011,08,20,03,41,10.50
2011,08,20,03,42,10.50
2011,08,20,03,43,10.50
2011,08,20,03,44,10.40
2011,08,20,03,45,10.40
2011,08,20,03,46,10.40
2011,08,20,03,47,10.40
2011,08,20,03,48,10.40
2011,08,20,03,49,10.40
2011,08,20,03,50,10.40
2011,08,20,03,51,10.40
2011,08,20,03,52,10.40
2011,08,20,03,53,10.40
2011,08,20,03,54,10.40
2011,08,20,03,55,10.40
2011,08,20,03,56,10.30
2011,08,20,03,57,10.30
2011,08,20,03,58,10.30
2011,08,20,03,59,10.30
2011,08,20,04,00,10.30
2011,08,20,04,01,10.30
2011,08,20,04,02,10.30
2011,08,20,04,03,10.30
2011,08,20,04,04,10.30
2011,08,20,04,05,10.30
2011,08,20,04,06,10.30
2011,08,20,04,07,10.30
2011,08,20,04,08,10.30
2011,08,20,04,09,10.30
2011,08,20,04,10,10.30
2011,08,20,04,11,10.30
2011,08,20,04,12,10.40
2011,08,20,04,13,10.40
2011,08,20,04,14,10.50
2011,08,20,04,15,10.50
2011,08,20,04,16,10.50
2011,08,20,04,17,10.50
2011,08,20,04,18,10.50
2011,08,20,04,19,10.60
2011,08,20,04,20,10.60
2011,08,20,04,21,10.60
2011,08,20,04,22,10.60
2011,08,20,04,23,10.60
2011,08,20,04,24,10.60
2011,08,20,04,25,10.60
2011,08,20,04,26,10.70
2011,08,20,04,27,10.60
2011,08,20,04,28,10.60
2011,08,20,04,29,10.60
2011,08,20,04,30,10.70
2011,08,20,04,31,10.70
2011,08,20,04,32,10.70
2011,08,20,04,33,10.60
2011,08,20,04,34,10.60
2011,08,20,04,35,10.60
2011,08,20,04,36,10.60
2011,08,20,04,37,10.60
2011,08,20,04,38,10.60
2011,08,20,04,39,10.60
2011,08,20,04,40,10.60
2011,08,20,04,41,10.60
2011,08,20,04,42,10.60
2011,08,20,04,43,10.60
2011,08,20,04,44,10.60
2011,08,20,04,45,10.60
2011,08,20,04,46,10.60
2011,08,20,04,47,10.60
2011,08,20,04,48,10.60
2011,08,20,04,49,10.60
2011,08,20,04,50,10.60
2011,08,20,04,51,10.50
2011,08,20,04,52,10.50
2011,08,20,04,53,10.50
2011,08,20,04,54,10.50
2011,08,20,04,55,10.50
2011,08,20,04,56,10.50
2011,08,20,04,57,10.40
2011,08,20,04,58,10.40
2011,08,20,04,59,10.40
2011,08,20,05,00,10.40
2011,08,20,05,01,10.40
2011,08,20,05,02,10.40
2011,08,20,05,03,10.40
2011,08,20,05,04,10.40
2011,08,20,05,05,10.50
2011,08,20,05,06,10.50
2011,08,20,05,07,10.50
2011,08,20,05,08,10.50
2011,08,20,05,09,10.50
2011,08,20,05,10,10.60
2011,08,20,05,11,10.60
2011,08,20,05,12,10.60
2011,08,20,05,13,10.60
2011,08,20,05,14,10.60
2011,08,20,05,15,10.60
2011,08,20,05,16,10.50
2011,08,20,05,17,10.50
2011,08,20,05,18,10.50
2011,08,20,05,19,10.40
2011,08,20,05,20,10.40
2011,08,20,05,21,10.40
2011,08,20,05,22,10.50
2011,08,20,05,23,10.50
2011,08,20,05,24,10.50
2011,08,20,05,25,10.50
2011,08,20,05,26,10.50
2011,08,20,05,27,10.50
2011,08,20,05,28,10.50
2011,08,20,05,29,10.50
2011,08,20,05,30,10.60
2011,08,20,05,31,10.60
2011,08,20,05,32,10.70
2011,08,20,05,33,10.70
2011,08,20,05,34,10.70
2011,08,20,05,35,10.70
2011,08,20,05,36,10.70
2011,08,20,05,37,10.70
2011,08,20,05,38,10.70
2011,08,20,05,39,10.80
2011,08,20,05,40,10.80
2011,08,20,05,41,10.80
2011,08,20,05,42,10.70
2011,08,20,05,43,10.70
2011,08,20,05,44,10.70
2011,08,20,05,45,10.60
2011,08,20,05,46,10.60
2011,08,20,05,47,10.60
2011,08,20,05,48,10.50
2011,08,20,05,49,10.50
2011,08,20,05,50,10.50
2011,08,20,05,51,10.40
2011,08,20,05,52,10.40
2011,08,20,05,53,10.40
2011,08,20,05,54,10.30
2011,08,20,05,55,10.30
2011,08,20,05,56,10.30
2011,08,20,05,57,10.30
2011,08,20,05,58,10.30
2011,08,20,05,59,10.30
2011,08,20,06,00,10.40
2011,08,20,06,01,10.40
2011,08,20,06,02,10.40
2011,08,20,06,03,10.40
2011,08,20,06,04,10.40
2011,08,20,06,05,10.40
2011,08,20,06,06,10.40
2011,08,20,06,07,10.40
2011,08,20,06,08,10.40
2011,08,20,06,09,10.40
2011,08,20,06,10,10.40
2011,08,20,06,11,10.40
2011,08,20,06,12,10.40
2011,08,20,06,13,10.40
2011,08,20,06,14,10.40
2011,08,20,06,15,10.40
2011,08,20,06,16,10.30
2011,08,20,06,17,10.30
2011,08,20,06,18,10.40
2011,08,20,06,19,10.40
2011,08,20,06,20,10.40
2011,08,20,06,21,10.40
2011,08,20,06,22,10.40
2011,08,20,06,23,10.50
2011,08,20,06,24,10.50
2011,08,20,06,25,10.40
2011,08,20,06,26,10.40
2011,08,20,06,27,10.50
2011,08,20,06,28,10.60
2011,08,20,06,29,10.60
2011,08,20,06,30,10.70
2011,08,20,06,31,10.70
2011,08,20,06,32,10.70
2011,08,20,06,33,10.70
2011,08,20,06,34,10.70
2011,08,20,06,35,10.70
2011,08,20,06,36,10.70
2011,08,20,06,37,10.70
2011,08,20,06,38,10.70
2011,08,20,06,39,10.60
2011,08,20,06,40,10.60
2011,08,20,06,41,10.70
2011,08,20,06,42,10.70
2011,08,20,06,43,10.70
2011,08,20,06,44,10.70
2011,08,20,06,45,10.80
2011,08,20,06,46,10.80
2011,08,20,06,47,10.80
2011,08,20,06,48,10.90
2011,08,20,06,49,10.90
2011,08,20,06,50,11.00
2011,08,20,06,51,11.00
2011,08,20,06,52,11.00
2011,08,20,06,53,11.10
2011,08,20,06,54,11.10
2011,08,20,06,55,11.10
2011,08,20,06,56,11.10
2011,08,20,06,57,11.10
2011,08,20,06,58,11.10
2011,08,20,06,59,11.10
2011,08,20,07,00,11.00
2011,08,20,07,01,11.00
2011,08,20,07,02,10.90
2011,08,20,07,03,10.90
2011,08,20,07,04,10.90
2011,08,20,07,05,10.90
2011,08,20,07,06,11.00
2011,08,20,07,07,11.10
2011,08,20,07,08,11.20
2011,08,20,07,09,11.20
2011,08,20,07,10,11.20
2011,08,20,07,11,11.20
2011,08,20,07,12,11.30
2011,08,20,07,13,11.30
2011,08,20,07,14,11.40
2011,08,20,07,15,11.40
2011,08,20,07,16,11.40
2011,08,20,07,17,11.30
2011,08,20,07,18,11.30
2011,08,20,07,19,11.30
2011,08,20,07,20,11.30
2011,08,20,07,21,11.40
2011,08,20,07,22,11.50
2011,08,20,07,23,11.50
2011,08,20,07,24,11.50
2011,08,20,07,25,11.50
2011,08,20,07,26,11.50
2011,08,20,07,27,11.50
2011,08,20,07,28,11.50
2011,08,20,07,29,11.60
2011,08,20,07,30,11.60
2011,08,20,07,31,11.70
2011,08,20,07,32,11.80
2011,08,20,07,33,11.90
2011,08,20,07,34,12.00
2011,08,20,07,35,12.00
2011,08,20,07,36,12.10
2011,08,20,07,37,12.10
2011,08,20,07,38,12.10
2011,08,20,07,39,12.10
2011,08,20,07,40,12.20
2011,08,20,07,41,12.20
2011,08,20,07,42,12.20
2011,08,20,07,43,12.30
2011,08,20,07,44,12.40
2011,08,20,07,45,12.40
2011,08,20,07,46,12.40
2011,08,20,07,47,12.50
2011,08,20,07,48,12.50
2011,08,20,07,49,12.60
2011,08,20,07,50,12.60
2011,08,20,07,51,12.70
2011,08,20,07,52,12.70
2011,08,20,07,53,12.80
2011,08,20,07,54,12.80
2011,08,20,07,55,12.80
2011,08,20,07,56,12.90
2011,08,20,07,57,13.00
2011,08,20,07,58,13.00
2011,08,20,07,59,13.10
2011,08,20,08,00,13.10
2011,08,20,08,01,13.20
2011,08,20,08,02,13.20
2011,08,20,08,03,13.30
2011,08,20,08,04,13.30
2011,08,20,08,05,13.40
2011,08,20,08,06,13.50
2011,08,20,08,07,13.50
2011,08,20,08,08,13.60
2011,08,20,08,09,13.60
2011,08,20,08,10,13.60
2011,08,20,08,11,13.70
2011,08,20,08,12,13.70
2011,08,20,08,13,13.80
2011,08,20,08,14,13.80
2011,08,20,08,15,13.90
2011,08,20,08,16,13.90
2011,08,20,08,17,14.00
2011,08,20,08,18,14.10
2011,08,20,08,19,14.10
2011,08,20,08,20,14.20
2011,08,20,08,21,14.30
2011,08,20,08,22,14.30
2011,08,20,08,23,14.40
2011,08,20,08,24,14.50
2011,08,20,08,25,14.60
2011,08,20,08,26,14.60
2011,08,20,08,27,14.70
2011,08,20,08,28,14.70
2011,08,20,08,29,14.80
2011,08,20,08,30,14.90
2011,08,20,08,31,15.00
2011,08,20,08,32,15.00
2011,08,20,08,33,15.00
2011,08,20,08,34,15.00
2011,08,20,08,35,15.00
2011,08,20,08,36,15.00
2011,08,20,08,37,15.10
2011,08,20,08,38,15.20
2011,08,20,08,39,15.30
2011,08,20,08,40,15.40
2011,08,20,08,41,15.50
2011,08,20,08,42,15.60
2011,08,20,08,43,15.70
2011,08,20,08,44,15.80
2011,08,20,08,45,15.90
2011,08,20,08,46,16.00
2011,08,20,08,47,16.10
2011,08,20,08,48,16.20
2011,08,20,08,49,16.30
2011,08,20,08,50,16.30
2011,08,20,08,51,16.40
2011,08,20,08,52,16.50
2011,08,20,08,53,16.50
2011,08,20,08,54,16.60
2011,08,20,08,55,16.70
2011,08,20,08,56,16.80
2011,08,20,08,57,16.90
2011,08,20,08,58,17.00
2011,08,20,08,59,17.10
2011,08,20,09,00,17.10
2011,08,20,09,01,17.20
2011,08,20,09,02,17.30
2011,08,20,09,03,17.40
2011,08,20,09,04,17.50
2011,08,20,09,05,17.60
2011,08,20,09,06,17.70
2011,08,20,09,07,17.80
2011,08,20,09,08,17.80
2011,08,20,09,09,17.90
2011,08,20,09,10,17.90
2011,08,20,09,11,18.00
2011,08,20,09,12,18.00
2011,08,20,09,13,18.10
2011,08,20,09,14,18.10
2011,08,20,09,15,18.10
2011,08,20,09,16,18.20
2011,08,20,09,17,18.20
2011,08,20,09,18,18.30
2011,08,20,09,19,18.30
2011,08,20,09,20,18.40
2011,08,20,09,21,18.40
2011,08,20,09,22,18.50
2011,08,20,09,23,18.50
2011,08,20,09,24,18.60
2011,08,20,09,25,18.60
2011,08,20,09,26,18.70
2011,08,20,09,27,18.80
2011,08,20,09,28,18.80
2011,08,20,09,29,18.90
2011,08,20,09,30,18.90
2011,08,20,09,31,19.00
2011,08,20,09,32,19.00
2011,08,20,09,33,19.00
2011,08,20,09,34,19.10
2011,08,20,09,35,19.10
2011,08,20,09,36,19.20
2011,08,20,09,37,19.20
2011,08,20,09,38,19.20
2011,08,20,09,39,19.20
2011,08,20,09,40,19.30
2011,08,20,09,41,19.30
2011,08,20,09,42,19.30
2011,08,20,09,43,19.40
2011,08,20,09,44,19.50
2011,08,20,09,45,19.50
2011,08,20,09,46,19.60
2011,08,20,09,47,19.70
2011,08,20,09,48,19.80
2011,08,20,09,49,19.80
2011,08,20,09,50,19.90
2011,08,20,09,51,19.90
2011,08,20,09,52,20.00
2011,08,20,09,53,20.00
2011,08,20,09,54,20.00
2011,08,20,09,55,20.10
2011,08,20,09,56,20.10
2011,08,20,09,57,20.20
2011,08,20,09,58,20.20
2011,08,20,09,59,20.30
2011,08,20,10,00,20.30
2011,08,20,10,01,20.30
2011,08,20,10,02,20.40
2011,08,20,10,03,20.40
2011,08,20,10,04,20.50
2011,08,20,10,05,20.50
2011,08,20,10,06,20.60
2011,08,20,10,07,20.70
2011,08,20,10,08,20.70
2011,08,20,10,09,20.80
2011,08,20,10,10,20.80
2011,08,20,10,11,20.80
2011,08,20,10,12,20.80
2011,08,20,10,13,20.90
2011,08,20,10,14,20.90
2011,08,20,10,15,21.00
2011,08,20,10,16,21.00
2011,08,20,10,17,21.10
2011,08,20,10,18,21.20
2011,08,20,10,19,21.20
2011,08,20,10,20,21.20
2011,08,20,10,21,21.20
2011,08,20,10,22,21.20
2011,08,20,10,23,21.20
2011,08,20,10,24,21.20
2011,08,20,10,25,21.20
2011,08,20,10,26,21.10
2011,08,20,10,27,21.10
2011,08,20,10,28,21.20
2011,08,20,10,29,21.20
2011,08,20,10,30,21.20
2011,08,20,10,31,21.20
2011,08,20,10,32,21.20
2011,08,20,10,33,21.20
2011,08,20,10,34,21.30
2011,08,20,10,35,21.30
2011,08,20,10,36,21.30
2011,08,20,10,37,21.30
2011,08,20,10,38,21.40
2011,08,20,10,39,21.40
2011,08,20,10,40,21.50
2011,08,20,10,41,21.60
2011,08,20,10,42,21.80
2011,08,20,10,43,21.80
2011,08,20,10,44,21.90
2011,08,20,10,45,21.90
2011,08,20,10,46,21.90
2011,08,20,10,47,21.80
2011,08,20,10,48,21.80
2011,08,20,10,49,21.80
2011,08,20,10,50,21.80
2011,08,20,10,51,21.80
2011,08,20,10,52,21.90
2011,08,20,10,53,21.90
2011,08,20,10,54,21.90
2011,08,20,10,55,21.90
2011,08,20,10,56,21.80
2011,08,20,10,57,21.80
2011,08,20,10,58,21.80
2011,08,20,10,59,21.80
2011,08,20,11,00,21.90
2011,08,20,11,01,21.90
2011,08,20,11,02,21.90
2011,08,20,11,03,21.90
2011,08,20,11,04,21.90
2011,08,20,11,05,21.90
2011,08,20,11,06,22.00
2011,08,20,11,07,22.10
2011,08,20,11,08,22.10
2011,08,20,11,09,22.20
2011,08,20,11,10,22.30
2011,08,20,11,11,22.30
2011,08,20,11,12,22.30
2011,08,20,11,13,22.30
2011,08,20,11,14,22.30
2011,08,20,11,15,22.30
2011,08,20,11,16,22.30
2011,08,20,11,17,22.20
2011,08,20,11,18,22.20
2011,08,20,11,19,22.20
2011,08,20,11,20,22.10
2011,08,20,11,21,22.10
2011,08,20,11,22,22.10
2011,08,20,11,23,22.10
2011,08,20,11,24,21.90
2011,08,20,11,25,21.80
2011,08,20,11,26,21.80
2011,08,20,11,27,21.90
2011,08,20,11,28,21.90
2011,08,20,11,29,22.00
2011,08,20,11,30,22.00
2011,08,20,11,31,22.10
2011,08,20,11,32,22.20
2011,08,20,11,33,22.30
2011,08,20,11,34,22.30
2011,08,20,11,35,22.30
2011,08,20,11,36,22.30
2011,08,20,11,37,22.30
2011,08,20,11,38,22.30
2011,08,20,11,39,22.30
2011,08,20,11,40,22.30
2011,08,20,11,41,22.40
2011,08,20,11,42,22.50
2011,08,20,11,43,22.50
2011,08,20,11,44,22.50
2011,08,20,11,45,22.60
2011,08,20,11,46,22.60
2011,08,20,11,47,22.70
2011,08,20,11,48,22.70
2011,08,20,11,49,22.70
2011,08,20,11,50,22.70
2011,08,20,11,51,22.70
2011,08,20,11,52,22.70
2011,08,20,11,53,22.70
2011,08,20,11,54,22.70
2011,08,20,11,55,22.80
2011,08,20,11,56,22.80
2011,08,20,11,57,22.80
2011,08,20,11,58,22.80
2011,08,20,11,59,22.80
2011,08,20,12,00,22.70
2011,08,20,12,01,22.80
2011,08,20,12,02,22.90
2011,08,20,12,03,22.90
2011,08,20,12,04,22.90
2011,08,20,12,05,22.90
2011,08,20,12,06,22.80
2011,08,20,12,07,22.90
2011,08,20,12,08,22.90
2011,08,20,12,09,23.00
2011,08,20,12,10,23.00
2011,08,20,12,11,23.10
2011,08,20,12,12,23.20
2011,08,20,12,13,23.20
2011,08,20,12,14,23.30
2011,08,20,12,15,23.30
2011,08,20,12,16,23.30
2011,08,20,12,17,23.40
2011,08,20,12,18,23.60
2011,08,20,12,19,23.70
2011,08,20,12,20,23.80
2011,08,20,12,21,23.90
2011,08,20,12,22,24.00
2011,08,20,12,23,24.10
2011,08,20,12,24,24.10
2011,08,20,12,25,24.10
2011,08,20,12,26,24.10
2011,08,20,12,27,24.10
2011,08,20,12,28,24.10
2011,08,20,12,29,24.10
2011,08,20,12,30,24.10
2011,08,20,12,31,24.10
2011,08,20,12,32,24.10
2011,08,20,12,33,24.10
2011,08,20,12,34,24.10
2011,08,20,12,35,24.10
2011,08,20,12,36,24.10
2011,08,20,12,37,24.10
2011,08,20,12,38,24.00
2011,08,20,12,39,23.80
2011,08,20,12,40,23.60
2011,08,20,12,41,23.40
2011,08,20,12,42,23.30
2011,08,20,12,43,23.20
2011,08,20,12,44,23.20
2011,08,20,12,45,23.20
2011,08,20,12,46,23.20
2011,08,20,12,47,23.20
2011,08,20,12,48,23.10
2011,08,20,12,49,23.10
2011,08,20,12,50,23.20
2011,08,20,12,51,23.20
2011,08,20,12,52,23.20
2011,08,20,12,53,23.20
2011,08,20,12,54,23.20
2011,08,20,12,55,23.30
2011,08,20,12,56,23.30
2011,08,20,12,57,23.40
2011,08,20,12,58,23.40
2011,08,20,12,59,23.40
2011,08,20,13,00,23.50
2011,08,20,13,01,23.60
2011,08,20,13,02,23.70
2011,08,20,13,03,23.70
2011,08,20,13,04,23.80
2011,08,20,13,05,23.80
2011,08,20,13,06,23.90
2011,08,20,13,07,24.00
2011,08,20,13,08,24.00
2011,08,20,13,09,24.10
2011,08,20,13,10,24.10
2011,08,20,13,11,24.10
2011,08,20,13,12,24.00
2011,08,20,13,13,23.90
2011,08,20,13,14,23.90
2011,08,20,13,15,23.80
2011,08,20,13,16,23.70
2011,08,20,13,17,23.60
2011,08,20,13,18,23.60
2011,08,20,13,19,23.50
2011,08,20,13,20,23.60
2011,08,20,13,21,23.60
2011,08,20,13,22,23.70
2011,08,20,13,23,23.60
2011,08,20,13,24,23.60
2011,08,20,13,25,23.60
2011,08,20,13,26,23.60
2011,08,20,13,27,23.60
2011,08,20,13,28,23.60
2011,08,20,13,29,23.50
2011,08,20,13,30,23.60
2011,08,20,13,31,23.60
2011,08,20,13,32,23.80
2011,08,20,13,33,23.80
2011,08,20,13,34,23.90
2011,08,20,13,35,24.00
2011,08,20,13,36,24.10
2011,08,20,13,37,24.20
2011,08,20,13,38,24.40
2011,08,20,13,39,24.50
2011,08,20,13,40,24.70
2011,08,20,13,41,24.80
2011,08,20,13,42,24.70
2011,08,20,13,43,24.50
2011,08,20,13,44,24.40
2011,08,20,13,45,24.30
2011,08,20,13,46,24.20
2011,08,20,13,47,24.20
2011,08,20,13,48,24.20
2011,08,20,13,49,24.40
2011,08,20,13,50,24.50
2011,08,20,13,51,24.70
2011,08,20,13,52,24.80
2011,08,20,13,53,24.90
2011,08,20,13,54,25.10
2011,08,20,13,55,25.20
2011,08,20,13,56,25.40
2011,08,20,13,57,25.50
2011,08,20,13,58,25.60
2011,08,20,13,59,25.70
2011,08,20,14,00,25.70
2011,08,20,14,01,25.60
2011,08,20,14,02,25.50
2011,08,20,14,03,25.40
2011,08,20,14,04,25.30
2011,08,20,14,05,25.30
2011,08,20,14,06,25.30
2011,08,20,14,07,25.40
2011,08,20,14,08,25.40
2011,08,20,14,09,25.40
2011,08,20,14,10,25.30
2011,08,20,14,11,25.30
2011,08,20,14,12,25.30
2011,08,20,14,13,25.30
2011,08,20,14,14,25.30
2011,08,20,14,15,25.30
2011,08,20,14,16,25.30
2011,08,20,14,17,25.40
2011,08,20,14,18,25.40
2011,08,20,14,19,25.40
2011,08,20,14,20,25.40
2011,08,20,14,21,25.30
2011,08,20,14,22,25.20
2011,08,20,14,23,25.20
2011,08,20,14,24,25.10
2011,08,20,14,25,25.10
2011,08,20,14,26,25.10
2011,08,20,14,27,25.10
2011,08,20,14,28,25.20
2011,08,20,14,29,25.20
2011,08,20,14,30,25.30
2011,08,20,14,31,25.20
2011,08,20,14,32,25.30
2011,08,20,14,33,25.40
2011,08,20,14,34,25.50
2011,08,20,14,35,25.60
2011,08,20,14,36,25.70
2011,08,20,14,37,25.80
2011,08,20,14,38,25.80
2011,08,20,14,39,25.80
2011,08,20,14,40,25.80
2011,08,20,14,41,25.70
2011,08,20,14,42,25.80
2011,08,20,14,43,25.90
2011,08,20,14,44,25.90
2011,08,20,14,45,25.90
2011,08,20,14,46,25.90
2011,08,20,14,47,25.80
2011,08,20,14,48,25.70
2011,08,20,14,49,25.60
2011,08,20,14,50,25.50
2011,08,20,14,51,25.50
2011,08,20,14,52,25.50
2011,08,20,14,53,25.60
2011,08,20,14,54,25.60
2011,08,20,14,55,25.60
2011,08,20,14,56,25.70
2011,08,20,14,57,25.70
2011,08,20,14,58,25.60
2011,08,20,14,59,25.60
2011,08,20,15,00,25.60
2011,08,20,15,01,25.70
2011,08,20,15,02,25.70
2011,08,20,15,03,25.80
2011,08,20,15,04,25.90
2011,08,20,15,05,25.90
2011,08,20,15,06,25.90
2011,08,20,15,07,26.00
2011,08,20,15,08,26.00
2011,08,20,15,09,26.10
2011,08,20,15,10,26.20
2011,08,20,15,11,26.20
2011,08,20,15,12,26.20
2011,08,20,15,13,26.30
2011,08,20,15,14,26.30
2011,08,20,15,15,26.40
2011,08,20,15,16,26.40
2011,08,20,15,17,26.50
2011,08,20,15,18,26.60
2011,08,20,15,19,26.60
2011,08,20,15,20,26.70
2011,08,20,15,21,26.70
2011,08,20,15,22,26.70
2011,08,20,15,23,26.80
2011,08,20,15,24,26.80
2011,08,20,15,25,26.80
2011,08,20,15,26,26.70
2011,08,20,15,27,26.70
2011,08,20,15,28,26.70
2011,08,20,15,29,26.70
2011,08,20,15,30,26.70
2011,08,20,15,31,26.70
2011,08,20,15,32,26.70
2011,08,20,15,33,26.70
2011,08,20,15,34,26.70
2011,08,20,15,35,26.60
2011,08,20,15,36,26.60
2011,08,20,15,37,26.50
2011,08,20,15,38,26.40
2011,08,20,15,39,26.40
2011,08,20,15,40,26.30
2011,08,20,15,41,26.30
2011,08,20,15,42,26.30
2011,08,20,15,43,26.30
2011,08,20,15,44,26.30
2011,08,20,15,45,26.30
2011,08,20,15,46,26.20
2011,08,20,15,47,26.30
2011,08,20,15,48,26.30
2011,08,20,15,49,26.30
2011,08,20,15,50,26.30
2011,08,20,15,51,26.30
2011,08,20,15,52,26.20
2011,08,20,15,53,26.20
2011,08,20,15,54,26.10
2011,08,20,15,55,26.10
2011,08,20,15,56,26.00
2011,08,20,15,57,26.00
2011,08,20,15,58,25.90
2011,08,20,15,59,25.60
2011,08,20,16,00,25.50
2011,08,20,16,01,25.40
2011,08,20,16,02,25.40
2011,08,20,16,03,25.30
2011,08,20,16,04,25.20
2011,08,20,16,05,25.10
2011,08,20,16,06,25.10
2011,08,20,16,07,25.10
2011,08,20,16,08,25.10
2011,08,20,16,09,25.10
2011,08,20,16,10,25.10
2011,08,20,16,11,25.20
2011,08,20,16,12,25.30
2011,08,20,16,13,25.40
2011,08,20,16,14,25.40
2011,08,20,16,15,25.30
2011,08,20,16,16,25.30
2011,08,20,16,17,25.30
2011,08,20,16,18,25.30
2011,08,20,16,19,25.30
2011,08,20,16,20,25.30
2011,08,20,16,21,25.30
2011,08,20,16,22,25.30
2011,08,20,16,23,25.30
2011,08,20,16,24,25.20
2011,08,20,16,25,25.20
2011,08,20,16,26,25.10
2011,08,20,16,27,25.10
2011,08,20,16,28,25.10
2011,08,20,16,29,25.10
2011,08,20,16,30,25.10
2011,08,20,16,31,25.00
2011,08,20,16,32,25.00
2011,08,20,16,33,25.10
2011,08,20,16,34,25.10
2011,08,20,16,35,25.10
2011,08,20,16,36,25.20
2011,08,20,16,37,25.20
2011,08,20,16,38,25.20
2011,08,20,16,39,25.20
2011,08,20,16,40,25.10
2011,08,20,16,41,25.00
2011,08,20,16,42,24.90
2011,08,20,16,43,24.80
2011,08,20,16,44,24.80
2011,08,20,16,45,24.80
2011,08,20,16,46,24.90
2011,08,20,16,47,24.90
2011,08,20,16,48,25.00
2011,08,20,16,49,25.10
2011,08,20,16,50,25.10
2011,08,20,16,51,25.10
2011,08,20,16,52,25.20
2011,08,20,16,53,25.20
2011,08,20,16,54,25.20
2011,08,20,16,55,25.20
2011,08,20,16,56,25.20
2011,08,20,16,57,25.20
2011,08,20,16,58,25.20
2011,08,20,16,59,25.20
2011,08,20,17,00,25.20
2011,08,20,17,01,25.30
2011,08,20,17,02,25.30
2011,08,20,17,03,25.40
2011,08,20,17,04,25.40
2011,08,20,17,05,25.40
2011,08,20,17,06,25.40
2011,08,20,17,07,25.40
2011,08,20,17,08,25.40
2011,08,20,17,09,25.40
2011,08,20,17,10,25.30
2011,08,20,17,11,25.20
2011,08,20,17,12,25.10
2011,08,20,17,13,25.00
2011,08,20,17,14,25.00
2011,08,20,17,15,24.80
2011,08,20,17,16,24.80
2011,08,20,17,17,24.80
2011,08,20,17,18,24.80
2011,08,20,17,19,24.80